User: anonymous   Login
Location: Unspecified
(0.0000°N, 0.0000°E)
Time: 15:58:56
(UTC+02:00)
Language:

ADEOS II - Orbit

View from above orbital plane
View from above orbital plane
View from above satellite
View from above satellite

Ground track
Ground track

The orbit data is extracted from the following two-line orbital elements,

1 27597U 02056A   17263.88230131 +.00000040 +00000-0 +33316-4 0  9992
2 27597 098.3802 229.4302 0002117 068.2090 291.9317 14.27304515769073
Epoch (UTC): 20 September 2017 21:10:30
Eccentricity: 0.0002117
inclination: 98.3802°
perigee height: 799 km
apogee height: 802 km
right ascension of ascending node: 229.4302°
argument of perigee: 68.2090°
revolutions per day: 14.27304515
mean anomaly at epoch: 291.9317°
orbit number at epoch: 76907

The dashed part of the orbit path shows where the satellite is in the earth's shadow,  

DLR